PROMETHEUS 2-9 (44366 NORAD) Tracking and Keplerian Element Data

This shows tracking and keplerian element data for the satellite.

Feedback or suggestion? Click here.




ElementValue
Catalog44366
NamePROMETHEUS 2-9
Epoch Orbit457
Epoch Day209.90740037
Epoch Year2019
RAAN124.6697
Inclination45.011
Eccentricity0.0007616
Argument of Perigee86.9198
Mean Anonmoly273.2703
Mean Motion15.37381027
Decay Rate-3.36E-06
L11 44366U 19037B 19209.90740037 -.00000336 00000-0 00000+0 0 9996
L22 44366 45.0110 124.6697 0007616 86.9198 273.2703 15.37381027 4579

Live tracking and technical data element details for PROMETHEUS 2-9 (NORAD 44366). PROMETHEUS 2-9 can be tracked NOW for your location showing map with azimuth and elevation plus other details from your city location.

Track the satellite on the map from your city or location and see movement details for azimuth, elevation, latitude, longitude, range, height, and movement on the map or in text.







IsCatalogInMostPopularTable: catalog: 44366, numindb: 22
Update: records affected: 1



GetName: 44366 PROMETHEUS 2-9

Hit Count: updated at: Thu, 12 Dec 2019 00:39:25 GMT